AL7BX-WX Weather Reports


time (UTC)temp
C
wind
direction
speed
KPH
gust
KPH
rain 1hr
cm
rain 24hr
cm
rain mn
cm
humidity
%
barometer
mb
20260506013603 16 255 8.0 20.9 0.00 0.00 0.00 34
20260506012914 16 264 11.3 20.9 0.00 0.00 0.00 34
20260506011803 16 220 8.0 16.1 0.00 0.00 0.00 33
20260506010903 16 201 9.7 20.9 0.00 0.00 0.00 32
20260506010003 16 203 11.3 22.5 0.00 0.00 0.00 33
20260506005403 16 196 11.3 22.5 0.00 0.00 0.00 32
20260506004503 16 198 9.7 17.7 0.00 0.00 0.00 33
20260506003814 15 194 9.7 17.7 0.00 0.00 0.00 33
20260506002703 15 202 9.7 19.3 0.00 0.00 0.00 33
20260506001803 16 203 9.7 19.3 0.00 0.00 0.00 32
20260506000903 16 217 6.4 11.3 0.00 0.00 0.00 31
20260506000214 17 208 8.0 16.1 0.00 0.00 0.00 28
20260505235403 16 203 9.7 19.3 0.00 0.00 0.00 31
20260505234503 16 195 9.7 17.7 0.00 0.00 0.00 31
20260505233603 17 201 9.7 20.9 0.00 0.00 0.00 30
20260505232703 17 209 9.7 20.9 0.00 0.00 0.00 30
20260505232012 17 206 9.7 20.9 0.00 0.00 0.00 29
20260505231114 17 199 12.9 24.1 0.00 0.00 0.00 30
20260505230004 17 225 9.7 19.3 0.00 0.00 0.00 30
20260505225403 17 246 6.4 19.3 0.00 0.00 0.00 31
20260505224503 17 253 3.2 8.0 0.00 0.00 0.00 29
20260505223603 17 299 6.4 14.5 0.00 0.00 0.00 29
20260505222703 18 284 8.0 17.7 0.00 0.00 0.00 29
20260505221803 18 231 9.7 24.1 0.00 0.00 0.00 28
20260505221113 18 234 9.7 32.2 0.00 0.00 0.00 27
20260505220213 17 247 9.7 19.3 0.00 0.00 0.00 30
20260505215403 18 257 6.4 20.9 0.00 0.00 0.00 29
20260505214503 18 259 9.7 20.9 0.00 0.00 0.00 28
20260505213603 18 268 9.7 19.3 0.00 0.00 0.00 29
20260505212703 18 280 8.0 20.9 0.00 0.00 0.00 30
20260505211803 18 284 8.0 17.7 0.00 0.00 0.00 30
20260505210903 18 285 11.3 24.1 0.00 0.00 0.00 30
20260505210004 17 230 8.0 17.7 0.00 0.00 0.00 30
20260505205403 18 272 9.7 20.9 0.00 0.00 0.00 30
20260505204503 18 247 6.4 20.9 0.00 0.00 0.00 28
20260505203813 17 237 3.2 9.7 0.00 0.00 0.00 30
20260505202703 17 265 8.0 17.7 0.00 0.00 0.00 31
20260505201803 17 277 6.4 16.1 0.00 0.00 0.00 32
20260505200904 17 231 8.0 19.3 0.00 0.00 0.00 29
20260505200003 17 256 6.4 27.4 0.00 0.00 0.00 32
20260505195403 17 256 8.0 17.7 0.00 0.00 0.00 29
20260505194503 16 268 9.7 17.7 0.00 0.00 0.00 30
20260505193603 16 277 8.0 17.7 0.00 0.00 0.00 30
20260505192703 16 319 8.0 16.1 0.00 0.00 0.00 33
20260505191803 16 302 6.4 14.5 0.00 0.00 0.00 33
20260505190903 16 305 4.8 14.5 0.00 0.00 0.00 32
20260505190004 16 325 3.2 6.4 0.00 0.00 0.00 32
20260505185403 15 277 4.8 14.5 0.00 0.00 0.00 34
20260505184503 15 300 8.0 17.7 0.00 0.00 0.00 32
20260505183814 15 303 6.4 17.7 0.00 0.00 0.00 31
20260505182913 15 218 8.0 19.3 0.00 0.00 0.00 31
20260505181803 15 298 8.0 14.5 0.00 0.00 0.00 33
20260505180903 15 278 9.7 19.3 0.00 0.00 0.00 33
20260505180003 15 267 8.0 19.3 0.00 0.00 0.00 33
20260505175403 15 271 8.0 19.3 0.00 0.00 0.00 35
20260505174503 15 272 8.0 16.1 0.00 0.00 0.00 35
20260505173814 15 264 8.0 22.5 0.00 0.00 0.00 36
20260505172703 14 277 11.3 20.9 0.00 0.00 0.00 35
20260505171803 14 269 12.9 20.9 0.00 0.00 0.00 35
20260505170903 13 264 9.7 22.5 0.00 0.00 0.00 38
20260505170003 13 228 11.3 20.9 0.00 0.00 0.00 35
20260505165403 13 229 9.7 17.7 0.00 0.00 0.00 37
20260505164503 12 222 11.3 24.1 0.00 0.00 0.00 39
20260505163813 12 220 9.7 22.5 0.00 0.00 0.00 39
20260505162703 12 214 9.7 17.7 0.00 0.00 0.00 39
20260505161803 12 215 9.7 25.7 0.00 0.00 0.00 40
20260505160903 12 226 11.3 24.1 0.00 0.00 0.00 41
20260505152703 11 206 9.7 19.3 0.00 0.00 0.00 42
20260505151803 10 217 8.0 17.7 0.00 0.00 0.00 43
20260505150903 10 195 6.4 12.9 0.00 0.00 0.00 44
20260505150214 10 214 6.4 14.5 0.00 0.00 0.00 44
20260505140214 5 236 1.6 4.8 0.00 0.00 0.00 64
20260505124503 3 185 1.6 4.8 0.00 0.00 0.00 61
20260505123603 2 0 0.0 0.0 0.00 0.00 0.00 60
20260505122703 2 0 0.0 0.0 0.00 0.00 0.00 59
20260505121803 2 185 0.0 3.2 0.00 0.00 0.00 58
20260505120903 2 185 0.0 4.8 0.00 0.00 0.00 57
20260505120004 3 185 0.0 3.2 0.00 0.00 0.00 56
20260505115613 2 185 0.0 3.2 0.00 0.00 0.00 56
20260505114503 3 185 0.0 3.2 0.00 0.00 0.00 57
20260505113603 3 185 1.6 4.8 0.00 0.00 0.00 56
20260505112703 2 185 0.0 4.8 0.00 0.00 0.00 58
20260505111803 2 186 1.6 6.4 0.00 0.00 0.00 59
20260505111113 3 186 1.6 6.4 0.00 0.00 0.00 57
20260505101803 2 207 0.0 3.2 0.00 0.00 0.00 61
20260505100903 2 207 0.0 3.2 0.00 0.00 0.00 60
20260505100212 2 207 1.6 4.8 0.00 0.00 0.00 60
20260505095403 2 207 3.2 4.8 0.00 0.00 0.00 58
20260505094503 3 207 3.2 6.4 0.00 0.00 0.00 56
20260505093603 3 208 1.6 4.8 0.00 0.00 0.00 53
20260505092914 4 207 1.6 4.8 0.00 0.00 0.00 52
20260505091803 4 207 3.2 6.4 0.00 0.00 0.00 51
20260505090903 4 206 3.2 6.4 0.00 0.00 0.00 50
20260505090003 5 206 3.2 6.4 0.00 0.00 0.00 49
20260505085403 5 205 3.2 8.0 0.00 0.00 0.00 49
20260505084503 5 190 1.6 6.4 0.00 0.00 0.00 48
20260505083812 5 189 1.6 6.4 0.00 0.00 0.00 46
20260505082703 5 188 3.2 6.4 0.00 0.00 0.00 45
20260505082013 6 186 3.2 8.0 0.00 0.00 0.00 45
20260505081114 6 176 3.2 6.4 0.00 0.00 0.00 44
20260505080003 6 172 3.2 6.4 0.00 0.00 0.00 43
20260505075403 6 172 3.2 8.0 0.00 0.00 0.00 43
20260505074503 6 171 3.2 6.4 0.00 0.00 0.00 42
20260505073603 5 172 1.6 6.4 0.00 0.00 0.00 42
20260505072703 6 175 4.8 11.3 0.00 0.00 0.00 42
20260505071803 6 186 6.4 11.3 0.00 0.00 0.00 42
20260505070903 5 187 4.8 9.7 0.00 0.00 0.00 42
20260505070003 5 186 3.2 8.0 0.00 0.00 0.00 43
20260505065403 5 187 3.2 8.0 0.00 0.00 0.00 43
20260505064503 5 174 3.2 9.7 0.00 0.00 0.00 42
20260505063603 6 154 1.6 4.8 0.00 0.00 0.00 40
20260505062703 6 154 0.0 4.8 0.00 0.00 0.00 38
20260505061803 7 154 0.0 1.6 0.00 0.00 0.00 36
20260505060903 8 153 1.6 4.8 0.00 0.00 0.00 34
20260505060215 9 151 3.2 8.0 0.00 0.00 0.00 32
20260505055403 9 145 4.8 11.3 0.00 0.00 0.00 31
20260505054503 10 163 4.8 11.3 0.00 0.00 0.00 31
20260505053603 10 149 6.4 11.3 0.00 0.00 0.00 30
20260505052703 10 136 6.4 12.9 0.00 0.00 0.00 30
20260505051803 10 139 6.4 14.5 0.00 0.00 0.00 31
20260505050903 9 148 4.8 11.3 0.00 0.00 0.00 33
20260505040903 11 166 4.8 14.5 0.00 0.00 0.00 32
20260505040004 11 166 4.8 12.9 0.00 0.00 0.00 33
20260505035403 11 164 6.4 19.3 0.00 0.00 0.00 33
20260505034503 11 171 4.8 12.9 0.00 0.00 0.00 33
20260505033603 11 176 6.4 16.1 0.00 0.00 0.00 34
20260505032703 12 171 8.0 17.7 0.00 0.00 0.00 34
20260505031803 12 185 6.4 16.1 0.00 0.00 0.00 34
20260505030903 12 182 9.7 17.7 0.00 0.00 0.00 34
20260505030003 12 184 11.3 20.9 0.00 0.00 0.00 34
20260505025403 12 184 11.3 20.9 0.00 0.00 0.00 34
20260505024503 12 186 12.9 24.1 0.00 0.00 0.00 34
20260505023814 12 188 12.9 24.1 0.00 0.00 0.00 33
20260505022703 13 194 9.7 20.9 0.00 0.00 0.00 34
20260505021803 13 194 11.3 27.4 0.00 0.00 0.00 34
20260505020903 14 195 12.9 27.4 0.00 0.00 0.00 34
20260505020213 14 190 16.1 33.8 0.00 0.00 0.00 35
20260505015403 15 187 16.1 33.8 0.00 0.00 0.00 35
20260505014714 15 192 14.5 27.4 0.00 0.00 0.00 36